Weather History for Wolf Point, MT

Change the Weather History Date:

Wednesday, November 21, 2012

  Actual Average Record
Temperature  
Mean Temperature 34 °F -  
Max Temperature 42 °F 37 °F 59 °F (2002)
Min Temperature 25 °F 12 °F -19 °F (2013)
Degree Days  
Heating Degree Days 31    
Cooling Degree Days 0    
Moisture  
Dew Point 31 °F    
Average Humidity 90    
Maximum Humidity 100    
Minimum Humidity 79    
Precipitation  
Precipitation T in 0.01 in 0.01 in (1999)
Month to date precipitation 0.27 0.30  
Year to date precipitation 10.14 11.79  
Sea Level Pressure  
Sea Level Pressure 29.76 in    
Wind  
Wind Speed 3 mph (NE)    
Max Wind Speed 10 mph    
Max Gust Speed -    
Visibility 9 miles    
Events Snow    
T = Trace of Precipitation, MM = Missing Value Source: NWS Daily Summary

Daily Weather History Graph

Daily Weather History Graph

Search for Another Location

Airport:

Trip Planner

Search our weather history database for the weather conditions in past years. The results will help you decide how hot, cold, wet, or windy it might be!

Date:

Astronomy

Nov. 21, 2012 Rise Set
Actual Time 7:18 AM MST 4:17 PM MST
Civil Twilight 6:43 AM MST 4:52 PM MST
Nautical Twilight 6:05 AM MST 5:30 PM MST
Astronomical Twilight 5:28 AM MST 6:07 PM MST
Moon 1:00 PM MST (11/21) 12:12 AM MST (11/21)
Length of Visible Light 10h 08m
Length of Day
8h 58m
Waxing Gibbous, 62% of the Moon is Illuminated
Nov 21
Waxing Gibbous
Nov 28
Full
Dec 6
Last Quarter
Dec 13
New
Dec 19
First Quarter

Hourly Weather History & Observations

Time (MST) Temp. Windchill Dew Point Humidity Pressure Visibility Wind Dir Wind Speed Gust Speed Precip Events Conditions
12:53 AM 34.0 °F 31.0 °F 30.9 °F 89% 29.83 in 10.0 mi NE 3.5 mph - N/A   Clear
1:53 AM 32.0 °F - 30.0 °F 92% 29.82 in 10.0 mi Calm Calm - N/A   Clear
2:53 AM 28.0 °F - 28.0 °F 100% 29.82 in 5.0 mi Calm Calm - N/A   Clear
3:01 AM 28.4 °F 24.6 °F 26.6 °F 93% 29.77 in 1.8 mi ESE 3.5 mph - N/A   Clear
3:13 AM 28.4 °F 24.6 °F 28.4 °F 100% 29.77 in 4.0 mi East 3.5 mph - N/A   Clear
3:53 AM 28.0 °F 22.8 °F 27.0 °F 96% 29.82 in 10.0 mi NE 4.6 mph - N/A   Clear
4:53 AM 28.9 °F 23.9 °F 27.0 °F 92% 29.82 in 10.0 mi East 4.6 mph - N/A   Clear
5:53 AM 26.1 °F 20.5 °F 25.0 °F 96% 29.83 in 10.0 mi ENE 4.6 mph - N/A   Clear
6:53 AM 28.0 °F 24.2 °F 27.0 °F 96% 29.81 in 10.0 mi ENE 3.5 mph - N/A   Clear
7:53 AM 27.0 °F 23.0 °F 25.0 °F 92% 29.79 in 7.0 mi East 3.5 mph - N/A   Clear
8:53 AM 30.0 °F 26.5 °F 28.0 °F 92% 29.76 in 5.0 mi NE 3.5 mph - N/A   Partly Cloudy
9:53 AM 33.1 °F 27.7 °F 30.0 °F 89% 29.74 in 5.0 mi ENE 5.8 mph - N/A   Overcast
10:53 AM 37.0 °F 29.8 °F 32.0 °F 82% 29.68 in 7.0 mi ENE 10.4 mph - N/A   Scattered Clouds
11:53 AM 37.9 °F 35.5 °F 32.0 °F 79% 29.66 in 8.0 mi NNE 3.5 mph - N/A   Mostly Cloudy
12:53 PM 41.0 °F - 35.1 °F 79% 29.65 in 10.0 mi Calm Calm - 0.00 in   Scattered Clouds
1:53 PM 41.0 °F 38.0 °F 35.1 °F 79% 29.66 in 10.0 mi SSW 4.6 mph - 0.00 in   Clear
2:53 PM 39.0 °F 32.3 °F 34.0 °F 82% 29.68 in 10.0 mi WSW 10.4 mph - N/A   Clear
3:53 PM 37.0 °F 31.0 °F 34.0 °F 89% 29.71 in 10.0 mi WSW 8.1 mph - N/A   Clear
4:53 PM 35.1 °F 31.0 °F 33.1 °F 92% 29.75 in 10.0 mi West 4.6 mph - N/A   Scattered Clouds
5:01 PM 35.6 °F - 33.8 °F 93% 29.68 in 10.0 mi Calm Calm - N/A   Mostly Cloudy
5:22 PM 35.6 °F - 33.8 °F 93% 29.70 in 10.0 mi Calm Calm - N/A   Overcast
5:53 PM 36.0 °F - 34.0 °F 93% 29.77 in 10.0 mi Calm Calm - N/A   Overcast
6:22 PM 35.6 °F - 33.8 °F 93% 29.71 in 10.0 mi Calm Calm - N/A   Scattered Clouds
6:45 PM 35.6 °F - 33.8 °F 93% 29.72 in 10.0 mi Calm Calm - N/A   Mostly Cloudy
6:53 PM 36.0 °F 33.3 °F 34.0 °F 93% 29.78 in 10.0 mi NNE 3.5 mph - N/A   Mostly Cloudy
7:18 PM 35.6 °F - 33.8 °F 93% 29.73 in 10.0 mi Calm Calm - N/A   Mostly Cloudy
7:53 PM 35.1 °F 31.0 °F 32.0 °F 89% 29.82 in 10.0 mi NNW 4.6 mph - N/A   Overcast
8:53 PM 35.1 °F - 32.0 °F 89% 29.82 in 10.0 mi Calm Calm - 0.00 in   Overcast
9:01 PM 35.6 °F - 32.0 °F 87% 29.76 in 10.0 mi Calm Calm - N/A   Mostly Cloudy
9:13 PM 35.6 °F - 32.0 °F 87% 29.76 in 10.0 mi Calm Calm - N/A   Scattered Clouds
9:36 PM 33.8 °F - 30.2 °F 87% 29.76 in 10.0 mi Calm Calm - N/A   Mostly Cloudy
9:53 PM 33.1 °F - 30.9 °F 92% 29.84 in 10.0 mi Calm Calm - N/A   Overcast
10:53 PM 34.0 °F 28.0 °F 30.9 °F 89% 29.87 in 7.0 mi NW 6.9 mph - 0.00 in Snow Light Snow
11:53 PM 34.0 °F 28.0 °F 30.9 °F 89% 29.88 in 10.0 mi NW 6.9 mph - 0.00 in   Overcast